カタログに戻る

NOAA 16 DEB

運用中SSO
NORAD 41495·DEBRIS·🇺🇸 United States

打ち上げ Sep 21, 2000 から Vandenberg Space Force Base

Loading…

次のパス (今後24時間)

TLE

最新Source: Space-Track

元期: Sep 13, 2026, 11:13 UTC

1 41495U 00055LT  26256.46789972  .00001782  00000-0  89638-3 0  9991
2 41495  98.6770 262.1092 0035964 353.2216   6.8468 14.17362068540248

AllMySatでNOAA 16 DEBをリアルタイム追跡

Download on the App Store